Location: *
(17.3280°S, 114.7300°W)
Time: 07:42:20
(UTC+00:00)

CZ-4B R/B - Pass Details

Date: 05 August 2020
Orbit: 809 x 881 km, 99.1° (Epoch: 20 September)

Event Time Altitude Azimuth Distance (km) Brightness Sun altitude
Rises 12:50:28 0° 23° (NNE) 3,438 6.9 -17.5°
Reaches altitude 10° 12:52:51 10° 26° (NNE) 2,513 6.2 -17.0°
Maximum altitude 12:58:21 59° 105° (ESE) 1,010 3.9 -15.7°
Drops below altitude 10° 13:03:56 10° 183° (S) 2,552 5.5 -14.4°
Sets 13:06:22 0° 186° (S) 3,495 6.2 -13.8°
